When you browse on this site, cookies collect data to enhance your experience and personalize the content and advertising you see.
Visit our Privacy Policy to learn more. By continuing to use the site, you agree to this use of cookies and data.

Hourly Weather Zorya

Today, 14 July, Tuesday

Time Temperature Precipitation Wind Pressure Humidity
00:00 +14°C° 0 mm 6 mps 747 mmHg 81%
01:00 +14°C° 0 mm 6 mps 747 mmHg 81%
02:00 +14°C° 0 mm 6 mps 747 mmHg 81%
03:00 +14°C° 0.3 mm 6 mps 747 mmHg 83%
04:00 +14°C° 0.3 mm 7 mps 747 mmHg 85%
05:00 +12°C° 0.3 mm 7 mps 746 mmHg 87%
06:00 +14°C° 0.5 mm 7 mps 746 mmHg 87%
07:00 +14°C° 0.5 mm 7 mps 746 mmHg 87%
08:00 +14°C° 0.5 mm 7 mps 746 mmHg 87%
09:00 +14°C° 0.2 mm 7 mps 746 mmHg 85%
10:00 +15°C° 0.2 mm 7 mps 747 mmHg 83%
11:00 +15°C° 0.2 mm 7 mps 747 mmHg 81%
12:00 +16°C° 0.1 mm 7 mps 747 mmHg 78%
13:00 +16°C° 0.1 mm 7 mps 747 mmHg 76%
14:00 +17°C° 0.1 mm 7 mps 747 mmHg 73%
15:00 +17°C° 0.1 mm 6 mps 747 mmHg 73%
16:00 +17°C° 0.1 mm 6 mps 747 mmHg 73%
17:00 +17°C° 0.1 mm 5 mps 747 mmHg 73%
18:00 +16°C° 0 mm 5 mps 747 mmHg 78%
19:00 +15°C° 0 mm 4 mps 747 mmHg 83%
20:00 +14°C° 0 mm 3 mps 748 mmHg 88%
21:00 +13°C° 0 mm 3 mps 748 mmHg 89%
22:00 +13°C° 0 mm 3 mps 748 mmHg 90%
23:00 +12°C° 0 mm 3 mps 748 mmHg 91%

Tomorrow, 15 July, Wednesday

Time Temperature Precipitation Wind Pressure Humidity
00:00 +12°C° 0 mm 3 mps 748 mmHg 91%
01:00 +12°C° 0 mm 3 mps 749 mmHg 91%
02:00 +12°C° 0 mm 3 mps 749 mmHg 91%
03:00 +12°C° 0 mm 3 mps 749 mmHg 90%
04:00 +12°C° 0 mm 3 mps 749 mmHg 89%
05:00 +12°C° 0 mm 3 mps 749 mmHg 88%
06:00 +14°C° 0 mm 4 mps 749 mmHg 81%
07:00 +17°C° 0 mm 4 mps 749 mmHg 74%
08:00 +19°C° 0 mm 4 mps 750 mmHg 66%
09:00 +21°C° 0 mm 4 mps 750 mmHg 62%
10:00 +22°C° 0 mm 4 mps 750 mmHg 57%
11:00 +23°C° 0 mm 5 mps 750 mmHg 52%
12:00 +23°C° 0 mm 4 mps 749 mmHg 50%
13:00 +25°C° 0 mm 4 mps 749 mmHg 48%
14:00 +25°C° 0 mm 4 mps 749 mmHg 47%
15:00 +25°C° 0 mm 4 mps 749 mmHg 48%
16:00 +25°C° 0 mm 4 mps 749 mmHg 50%
17:00 +25°C° 0 mm 4 mps 749 mmHg 51%
18:00 +22°C° 0.1 mm 3 mps 749 mmHg 58%
19:00 +20°C° 0.1 mm 3 mps 749 mmHg 65%
20:00 +19°C° 0.1 mm 2 mps 750 mmHg 72%
21:00 +18°C° 0 mm 2 mps 750 mmHg 75%
22:00 +17°C° 0 mm 2 mps 750 mmHg 78%
23:00 +17°C° 0 mm 2 mps 750 mmHg 81%

Day after tomorrow, 16 July, Thursday

Time Temperature Precipitation Wind Pressure Humidity
00:00 +16°C° 0 mm 2 mps 750 mmHg 83%
01:00 +16°C° 0 mm 2 mps 750 mmHg 84%
02:00 +15°C° 0 mm 2 mps 750 mmHg 85%
03:00 +15°C° 0 mm 1 mps 750 mmHg 85%
04:00 +15°C° 0 mm 1 mps 750 mmHg 85%
05:00 +15°C° 0 mm 1 mps 750 mmHg 86%
06:00 +18°C° 0 mm 1 mps 750 mmHg 78%
07:00 +20°C° 0 mm 1 mps 750 mmHg 71%
08:00 +22°C° 0 mm 1 mps 750 mmHg 64%
09:00 +23°C° 0 mm 1 mps 750 mmHg 59%
10:00 +24°C° 0 mm 1 mps 750 mmHg 53%
11:00 +25°C° 0 mm 1 mps 750 mmHg 48%
12:00 +26°C° 0 mm 1 mps 750 mmHg 45%
13:00 +27°C° 0 mm 1 mps 749 mmHg 42%
14:00 +27°C° 0 mm 1 mps 749 mmHg 40%
15:00 +27°C° 0 mm 1 mps 749 mmHg 40%
16:00 +27°C° 0 mm 1 mps 748 mmHg 40%
17:00 +27°C° 0 mm 1 mps 748 mmHg 41%
18:00 +25°C° 0 mm 1 mps 748 mmHg 46%
19:00 +24°C° 0 mm 1 mps 748 mmHg 51%
20:00 +22°C° 0 mm 1 mps 748 mmHg 55%
21:00 +21°C° 0 mm 1 mps 748 mmHg 59%
22:00 +19°C° 0 mm 2 mps 748 mmHg 63%
23:00 +19°C° 0 mm 2 mps 748 mmHg 66%

17 July, Friday

Time Temperature Precipitation Wind Pressure Humidity
00:00 +18°C° 0 mm 2 mps 748 mmHg 67%
01:00 +18°C° 0 mm 2 mps 748 mmHg 67%
02:00 +18°C° 0 mm 2 mps 748 mmHg 68%
03:00 +18°C° 0 mm 2 mps 748 mmHg 69%
04:00 +18°C° 0 mm 2 mps 748 mmHg 71%
05:00 +19°C° 0 mm 1 mps 748 mmHg 72%
06:00 +19°C° 0 mm 2 mps 748 mmHg 67%
07:00 +21°C° 0 mm 2 mps 749 mmHg 63%
08:00 +24°C° 0 mm 2 mps 749 mmHg 58%
09:00 +25°C° 0 mm 2 mps 749 mmHg 52%
10:00 +27°C° 0 mm 2 mps 749 mmHg 47%
11:00 +28°C° 0 mm 2 mps 749 mmHg 41%
12:00 +28°C° 0 mm 2 mps 749 mmHg 41%
13:00 +28°C° 0 mm 1 mps 749 mmHg 41%
14:00 +28°C° 0 mm 1 mps 749 mmHg 41%
15:00 +28°C° 0 mm 1 mps 749 mmHg 42%
16:00 +28°C° 0 mm 1 mps 748 mmHg 44%
17:00 +28°C° 0 mm 1 mps 748 mmHg 45%
18:00 +26°C° 0 mm 1 mps 749 mmHg 48%
19:00 +25°C° 0 mm 1 mps 749 mmHg 51%
20:00 +24°C° 0 mm 1 mps 749 mmHg 54%
21:00 +23°C° 0 mm 2 mps 749 mmHg 55%
22:00 +23°C° 0 mm 2 mps 749 mmHg 57%
23:00 +21°C° 0 mm 2 mps 750 mmHg 58%

18 July, Saturday

Time Temperature Precipitation Wind Pressure Humidity
00:00 +20°C° 0 mm 2 mps 750 mmHg 62%
01:00 +20°C° 0 mm 2 mps 750 mmHg 65%
02:00 +19°C° 0 mm 2 mps 750 mmHg 68%
03:00 +19°C° 0 mm 2 mps 750 mmHg 69%
04:00 +19°C° 0 mm 2 mps 750 mmHg 70%
05:00 +19°C° 0 mm 2 mps 750 mmHg 71%
06:00 +21°C° 0 mm 2 mps 750 mmHg 65%
07:00 +24°C° 0 mm 2 mps 751 mmHg 59%
08:00 +26°C° 0 mm 3 mps 751 mmHg 54%
09:00 +27°C° 0 mm 3 mps 751 mmHg 50%
10:00 +28°C° 0 mm 3 mps 751 mmHg 46%
11:00 +29°C° 0 mm 4 mps 751 mmHg 41%
12:00 +29°C° 0 mm 3 mps 751 mmHg 40%
13:00 +29°C° 0 mm 3 mps 751 mmHg 40%
14:00 +30°C° 0 mm 3 mps 750 mmHg 39%
15:00 +29°C° 0 mm 3 mps 750 mmHg 41%
16:00 +29°C° 0 mm 3 mps 750 mmHg 43%
17:00 +29°C° 0 mm 3 mps 750 mmHg 45%
18:00 +27°C° 0 mm 3 mps 750 mmHg 50%
19:00 +25°C° 0 mm 3 mps 750 mmHg 56%
20:00 +24°C° 0 mm 3 mps 750 mmHg 61%
21:00 +22°C° 0 mm 3 mps 750 mmHg 62%
22:00 +21°C° 0 mm 3 mps 750 mmHg 64%
23:00 +20°C° 0 mm 3 mps 750 mmHg 65%

19 July, Sunday

Time Temperature Precipitation Wind Pressure Humidity
00:00 +20°C° 0 mm 3 mps 750 mmHg 66%
01:00 +20°C° 0 mm 3 mps 750 mmHg 66%
02:00 +19°C° 0 mm 3 mps 750 mmHg 67%
03:00 +19°C° 0 mm 3 mps 750 mmHg 68%
04:00 +19°C° 0 mm 3 mps 750 mmHg 70%
05:00 +19°C° 0 mm 3 mps 750 mmHg 72%
06:00 +21°C° 0 mm 4 mps 750 mmHg 67%
07:00 +22°C° 0 mm 4 mps 750 mmHg 63%
08:00 +25°C° 0 mm 5 mps 749 mmHg 59%
09:00 +27°C° 0 mm 5 mps 749 mmHg 54%
10:00 +28°C° 0 mm 5 mps 749 mmHg 49%
11:00 +30°C° 0 mm 5 mps 749 mmHg 45%
12:00 +30°C° 0 mm 5 mps 748 mmHg 44%
13:00 +32°C° 0 mm 5 mps 748 mmHg 42%
14:00 +33°C° 0 mm 5 mps 747 mmHg 41%
15:00 +32°C° 0 mm 5 mps 747 mmHg 44%
16:00 +30°C° 0 mm 5 mps 746 mmHg 46%
17:00 +30°C° 0 mm 5 mps 746 mmHg 49%
18:00 +28°C° 0.6 mm 4 mps 746 mmHg 58%
19:00 +26°C° 0.6 mm 3 mps 746 mmHg 67%
20:00 +22°C° 0.6 mm 3 mps 746 mmHg 76%
21:00 +22°C° 0.4 mm 3 mps 746 mmHg 77%
22:00 +21°C° 0.4 mm 3 mps 746 mmHg 78%
23:00 +21°C° 0.4 mm 3 mps 746 mmHg 80%
Show more